Mora, MN

5:15 PM CDT on July 25, 2017 (GMT -0500)
Mora Municipal

Weather History for KJMR - March, 2014

Change the Weather History Date:

Saturday, March 15, 2014

  Actual Average Record
Temperature  
Mean Temperature 24 °F -  
Max Temperature 32 °F 38 °F 64 °F (2015)
Min Temperature 14 °F 15 °F -13 °F (1979)
Degree Days  
Heating Degree Days 42    
Moisture  
Dew Point 8 °F    
Average Humidity 55    
Maximum Humidity 79    
Minimum Humidity 34    
Precipitation  
Precipitation 0.00 in - - ()
Sea Level Pressure  
Sea Level Pressure 30.20 in    
Wind  
Wind Speed 5 mph (NNE)    
Max Wind Speed 12 mph    
Max Gust Speed 17 mph    
Visibility 10 miles    
Events      
Averages and records for this station are not official NWS values.
T = Trace of Precipitation, MM = Missing Value Source: NWS Daily Summary

Daily Weather History Graph

Daily Weather History Graph

Search for Another Location

Airport or City:

Trip Planner

Search our weather history database for the weather conditions in past years. The results will help you decide how hot, cold, wet, or windy it might be!

Date:

Astronomy

Mar. 15, 2014 Rise Set
Actual Time 7:25 AM CDT 7:18 PM CDT
Civil Twilight 6:55 AM CDT 7:48 PM CDT
Nautical Twilight 6:21 AM CDT 8:23 PM CDT
Astronomical Twilight 5:45 AM CDT 8:58 PM CDT
Moon 6:38 PM CDT (3/15) 6:39 AM CDT (3/15)
Length of Visible Light 12h 52m
Length of Day
11h 53m
Waxing Gibbous, 99% of the Moon is Illuminated
Mar 15
Waxing Gibbous
Mar 16
Full
Mar 23
Last Quarter
Mar 30
New
Apr 7
First Quarter

Hourly Weather History & Observations

Time (CDT) Temp. Windchill Dew Point Humidity Pressure Visibility Wind Dir Wind Speed Gust Speed Precip Events Conditions
12:11 AM 21.2 °F 12.6 °F 12.2 °F 68% 29.97 in 10.0 mi NW 6.9 mph - N/A   Clear
12:31 AM 21.2 °F 12.6 °F 12.2 °F 68% 29.97 in 10.0 mi NNW 6.9 mph - N/A   Clear
12:51 AM 19.4 °F 12.8 °F 12.2 °F 74% 29.98 in 10.0 mi NW 4.6 mph - N/A   Clear
1:11 AM 19.4 °F 11.5 °F 12.2 °F 74% 29.99 in 10.0 mi WNW 5.8 mph - N/A   Clear
1:31 AM 19.4 °F 12.8 °F 12.2 °F 74% 29.99 in 10.0 mi NNW 4.6 mph - N/A   Clear
1:51 AM 19.4 °F 11.5 °F 10.4 °F 68% 30.00 in 10.0 mi NW 5.8 mph - N/A   Clear
2:11 AM 19.4 °F 11.5 °F 10.4 °F 68% 30.00 in 10.0 mi NW 5.8 mph - N/A   Clear
2:31 AM 17.6 °F 10.7 °F 10.4 °F 73% 30.00 in 10.0 mi NW 4.6 mph - N/A   Clear
2:51 AM 17.6 °F 10.7 °F 10.4 °F 73% 30.01 in 10.0 mi NW 4.6 mph - N/A   Clear
3:11 AM 17.6 °F 10.7 °F 10.4 °F 73% 30.01 in 10.0 mi NNW 4.6 mph - N/A   Clear
3:31 AM 17.6 °F 10.7 °F 10.4 °F 73% 30.02 in 10.0 mi NW 4.6 mph - N/A   Clear
3:51 AM 17.6 °F 10.7 °F 10.4 °F 73% 30.01 in 10.0 mi NNW 4.6 mph - N/A   Clear
4:11 AM 17.6 °F 10.7 °F 10.4 °F 73% 30.02 in 10.0 mi NW 4.6 mph - N/A   Clear
4:31 AM 17.6 °F 9.3 °F 10.4 °F 73% 30.03 in 10.0 mi NNW 5.8 mph - N/A   Clear
4:51 AM 15.8 °F 7.2 °F 10.4 °F 79% 30.03 in 10.0 mi NNW 5.8 mph - N/A   Clear
5:11 AM 17.6 °F 10.7 °F 10.4 °F 73% 30.04 in 10.0 mi NNW 4.6 mph - N/A   Clear
5:31 AM 17.6 °F 10.7 °F 10.4 °F 73% 30.05 in 10.0 mi NNW 4.6 mph - N/A   Clear
5:51 AM 17.6 °F 10.7 °F 10.4 °F 73% 30.05 in 10.0 mi North 4.6 mph - N/A   Clear
6:11 AM 17.6 °F 10.7 °F 10.4 °F 73% 30.06 in 10.0 mi NNW 4.6 mph - N/A   Clear
6:31 AM 17.6 °F 10.7 °F 10.4 °F 73% 30.07 in 10.0 mi NNW 4.6 mph - N/A   Clear
6:51 AM 15.8 °F 10.2 °F 10.4 °F 79% 30.08 in 10.0 mi North 3.5 mph - N/A   Clear
7:11 AM 15.8 °F 8.6 °F 8.6 °F 73% 30.09 in 10.0 mi North 4.6 mph - N/A   Clear
7:31 AM 15.8 °F 10.2 °F 8.6 °F 73% 30.10 in 10.0 mi North 3.5 mph - N/A   Clear
7:51 AM 15.8 °F 10.2 °F 8.6 °F 73% 30.11 in 10.0 mi North 3.5 mph - N/A   Clear
8:11 AM 17.6 °F - 10.4 °F 73% 30.11 in 10.0 mi Calm Calm - N/A   Clear
8:31 AM 17.6 °F 12.3 °F 8.6 °F 68% 30.12 in 10.0 mi North 3.5 mph - N/A   Clear
8:51 AM 17.6 °F 12.3 °F 8.6 °F 68% 30.13 in 10.0 mi NNE 3.5 mph - N/A   Clear
9:11 AM 19.4 °F 12.8 °F 8.6 °F 63% 30.14 in 10.0 mi NE 4.6 mph - N/A   Clear
9:31 AM 19.4 °F 14.3 °F 8.6 °F 63% 30.14 in 10.0 mi NE 3.5 mph - N/A   Clear
9:51 AM 21.2 °F 13.6 °F 10.4 °F 63% 30.15 in 10.0 mi NE 5.8 mph - N/A   Clear
10:11 AM 23.0 °F - 10.4 °F 59% 30.17 in 10.0 mi Calm Calm - N/A   Clear
10:31 AM 23.0 °F 17.0 °F 10.4 °F 59% 30.18 in 10.0 mi ENE 4.6 mph - N/A   Clear
10:51 AM 24.8 °F - 12.2 °F 59% 30.19 in 10.0 mi Calm Calm - N/A   Clear
11:11 AM 26.6 °F 19.1 °F 12.2 °F 55% 30.19 in 10.0 mi ENE 6.9 mph - N/A   Clear
11:31 AM 26.6 °F 21.2 °F 12.2 °F 55% 30.19 in 10.0 mi NNE 4.6 mph - N/A   Clear
11:51 AM 26.6 °F 21.2 °F 10.4 °F 51% 30.20 in 10.0 mi NNE 4.6 mph - N/A   Clear
12:11 PM 26.6 °F 18.2 °F 10.4 °F 51% 30.21 in 10.0 mi NE 8.1 mph - N/A   Clear
12:31 PM 28.4 °F 21.2 °F 10.4 °F 47% 30.22 in 10.0 mi East 6.9 mph - N/A   Clear
12:51 PM 28.4 °F 21.2 °F 10.4 °F 47% 30.22 in 10.0 mi ENE 6.9 mph - N/A   Clear
1:11 PM 30.2 °F 26.7 °F 10.4 °F 44% 30.23 in 10.0 mi NNE 3.5 mph - N/A   Clear
1:31 PM 30.2 °F 25.4 °F 8.6 °F 40% 30.23 in 10.0 mi East 4.6 mph - N/A   Clear
1:51 PM 30.2 °F 26.7 °F 10.4 °F 44% 30.23 in 10.0 mi ENE 3.5 mph - N/A   Clear
2:11 PM 30.2 °F 25.4 °F 10.4 °F 44% 30.23 in 10.0 mi NNE 4.6 mph - N/A   Clear
2:31 PM 30.2 °F 22.6 °F 8.6 °F 40% 30.23 in 10.0 mi East 8.1 mph - N/A   Clear
2:51 PM 32.0 °F 27.5 °F 8.6 °F 38% 30.24 in 10.0 mi NE 4.6 mph - N/A   Clear
3:11 PM 32.0 °F 26.4 °F 8.6 °F 38% 30.24 in 10.0 mi NE 5.8 mph - N/A   Clear
3:31 PM 30.2 °F 22.6 °F 5.0 °F 34% 30.25 in 10.0 mi NNW 8.1 mph - N/A   Clear
3:51 PM 30.2 °F 25.4 °F 6.8 °F 37% 30.25 in 10.0 mi North 4.6 mph - N/A   Clear
4:11 PM 32.0 °F 25.6 °F 8.6 °F 38% 30.26 in 10.0 mi NNW 6.9 mph - N/A   Clear
4:31 PM 32.0 °F 27.5 °F 8.6 °F 38% 30.26 in 10.0 mi North 4.6 mph - N/A   Clear
4:51 PM 30.2 °F 23.4 °F 5.0 °F 34% 30.27 in 10.0 mi North 6.9 mph - N/A   Clear
5:11 PM 30.2 °F 20.8 °F 5.0 °F 34% 30.27 in 10.0 mi NNW 11.5 mph 17.3 mph N/A   Clear
5:31 PM 30.2 °F 25.4 °F 5.0 °F 34% 30.29 in 10.0 mi North 4.6 mph - N/A   Clear
5:51 PM 28.4 °F 22.2 °F 3.2 °F 34% 30.30 in 10.0 mi NE 5.8 mph - N/A   Clear
6:11 PM 28.4 °F 23.3 °F 5.0 °F 37% 30.31 in 10.0 mi NE 4.6 mph - N/A   Clear
6:31 PM 26.6 °F 20.0 °F 3.2 °F 37% 30.32 in 10.0 mi North 5.8 mph - N/A   Clear
6:51 PM 26.6 °F 20.0 °F 3.2 °F 37% 30.34 in 10.0 mi ENE 5.8 mph - N/A   Clear
7:11 PM 24.8 °F 20.5 °F 3.2 °F 40% 30.34 in 10.0 mi ENE 3.5 mph - N/A   Clear
7:31 PM 24.8 °F 19.1 °F 3.2 °F 40% 30.35 in 10.0 mi NE 4.6 mph - N/A   Clear
7:51 PM 23.0 °F 17.0 °F 3.2 °F 43% 30.37 in 10.0 mi NE 4.6 mph - N/A   Clear
8:11 PM 23.0 °F 13.9 °F 3.2 °F 43% 30.38 in 10.0 mi NE 8.1 mph - N/A   Clear
8:31 PM 21.2 °F 12.6 °F 1.4 °F 42% 30.39 in 10.0 mi NE 6.9 mph - N/A   Clear
8:51 PM 21.2 °F 13.6 °F 1.4 °F 42% 30.40 in 10.0 mi NNE 5.8 mph - N/A   Clear
9:11 PM 19.4 °F 11.5 °F 1.4 °F 46% 30.42 in 10.0 mi NNE 5.8 mph - N/A   Clear
9:31 PM 19.4 °F 12.8 °F 1.4 °F 46% 30.42 in 10.0 mi NNE 4.6 mph - N/A   Clear
9:51 PM 19.4 °F 12.8 °F 1.4 °F 46% 30.43 in 10.0 mi NNE 4.6 mph - N/A   Clear
10:11 PM 17.6 °F 9.3 °F -0.4 °F 45% 30.43 in 10.0 mi NE 5.8 mph - N/A   Clear
10:31 PM 17.6 °F 10.7 °F -0.4 °F 45% 30.44 in 10.0 mi NNE 4.6 mph - N/A   Clear
10:51 PM 17.6 °F 9.3 °F -0.4 °F 45% 30.44 in 10.0 mi NNE 5.8 mph - N/A   Clear
11:11 PM 17.6 °F 9.3 °F -0.4 °F 45% 30.44 in 10.0 mi NE 5.8 mph - N/A   Clear
11:31 PM 17.6 °F 9.3 °F -0.4 °F 45% 30.44 in 10.0 mi NE 5.8 mph - N/A   Clear
11:51 PM 14.0 °F 8.2 °F -2.2 °F 49% 30.45 in 10.0 mi NNE 3.5 mph - N/A   Clear